When you browse on this site, cookies collect data to enhance your experience and personalize the content and advertising you see.
Visit our Privacy Policy to learn more. By continuing to use the site, you agree to this use of cookies and data.
  • In Portugal
  • List of Countries
  • For 7 days
  • Water Temperature
  • Satellite Maps
  • Weather Map
  • Weather Widgets
  • user-avatar
    Login

    Hourly Weather Connaught

    Today, 16 July, Tuesday

    Time Temperature Precipitation Wind Pressure Humidity
    00:00 +14°C° 0 mm 1 mps 749 mmHg 93%
    01:00 +13°C° 0 mm 1 mps 748 mmHg 94%
    02:00 +13°C° 0 mm 1 mps 748 mmHg 96%
    03:00 +13°C° 0 mm 1 mps 748 mmHg 95%
    04:00 +13°C° 0 mm 1 mps 748 mmHg 95%
    05:00 +13°C° 0 mm 1 mps 748 mmHg 94%
    06:00 +15°C° 0 mm 2 mps 748 mmHg 89%
    07:00 +16°C° 0 mm 2 mps 748 mmHg 84%
    08:00 +18°C° 0 mm 3 mps 748 mmHg 79%
    09:00 +18°C° 0.1 mm 3 mps 748 mmHg 74%
    10:00 +19°C° 0.1 mm 4 mps 748 mmHg 70%
    11:00 +20°C° 0.1 mm 4 mps 747 mmHg 66%
    12:00 +20°C° 0.1 mm 4 mps 747 mmHg 67%
    13:00 +20°C° 0.1 mm 5 mps 747 mmHg 69%
    14:00 +19°C° 0.1 mm 5 mps 747 mmHg 70%
    15:00 +19°C° 0.1 mm 5 mps 747 mmHg 72%
    16:00 +18°C° 0.1 mm 4 mps 746 mmHg 74%
    17:00 +18°C° 0.1 mm 4 mps 746 mmHg 76%
    18:00 +17°C° 0 mm 4 mps 746 mmHg 81%
    19:00 +14°C° 0 mm 3 mps 746 mmHg 86%
    20:00 +14°C° 0 mm 2 mps 746 mmHg 90%
    21:00 +13°C° 0 mm 3 mps 746 mmHg 91%
    22:00 +13°C° 0 mm 3 mps 745 mmHg 92%
    23:00 +12°C° 0 mm 3 mps 745 mmHg 93%

    Tomorrow, 17 July, Wednesday

    Time Temperature Precipitation Wind Pressure Humidity
    00:00 +13°C° 0 mm 3 mps 744 mmHg 92%
    01:00 +13°C° 0 mm 3 mps 744 mmHg 92%
    02:00 +13°C° 0 mm 4 mps 743 mmHg 91%
    03:00 +13°C° 0.5 mm 4 mps 743 mmHg 92%
    04:00 +13°C° 0.5 mm 5 mps 742 mmHg 94%
    05:00 +13°C° 0.5 mm 5 mps 742 mmHg 95%
    06:00 +13°C° 1 mm 5 mps 742 mmHg 95%
    07:00 +14°C° 1 mm 6 mps 741 mmHg 96%
    08:00 +14°C° 1 mm 6 mps 741 mmHg 96%
    09:00 +14°C° 0.5 mm 6 mps 741 mmHg 96%
    10:00 +14°C° 0.5 mm 6 mps 741 mmHg 96%
    11:00 +14°C° 0.5 mm 6 mps 740 mmHg 96%
    12:00 +15°C° 0.6 mm 5 mps 741 mmHg 95%
    13:00 +15°C° 0.6 mm 4 mps 741 mmHg 94%
    14:00 +17°C° 0.6 mm 4 mps 741 mmHg 93%
    15:00 +15°C° 0.3 mm 4 mps 741 mmHg 90%
    16:00 +15°C° 0.3 mm 4 mps 741 mmHg 88%
    17:00 +15°C° 0.3 mm 4 mps 740 mmHg 85%
    18:00 +14°C° 0 mm 3 mps 741 mmHg 87%
    19:00 +12°C° 0 mm 3 mps 741 mmHg 88%
    20:00 +11°C° 0 mm 3 mps 741 mmHg 90%
    21:00 +12°C° 0 mm 2 mps 741 mmHg 91%
    22:00 +10°C° 0 mm 2 mps 741 mmHg 92%
    23:00 +10°C° 0 mm 2 mps 741 mmHg 93%

    Day after tomorrow, 18 July, Thursday

    Time Temperature Precipitation Wind Pressure Humidity
    00:00 +10°C° 0 mm 2 mps 741 mmHg 92%
    01:00 +12°C° 0 mm 2 mps 741 mmHg 91%
    02:00 +11°C° 0 mm 3 mps 741 mmHg 90%
    03:00 +11°C° 0 mm 3 mps 741 mmHg 90%
    04:00 +11°C° 0 mm 3 mps 741 mmHg 90%
    05:00 +11°C° 0 mm 3 mps 740 mmHg 89%
    06:00 +12°C° 0.1 mm 3 mps 740 mmHg 89%
    07:00 +12°C° 0.1 mm 4 mps 740 mmHg 88%
    08:00 +13°C° 0.1 mm 4 mps 741 mmHg 88%
    09:00 +13°C° 0.4 mm 5 mps 741 mmHg 86%
    10:00 +14°C° 0.4 mm 5 mps 741 mmHg 85%
    11:00 +15°C° 0.4 mm 6 mps 741 mmHg 84%
    12:00 +15°C° 0.5 mm 6 mps 741 mmHg 81%
    13:00 +16°C° 0.5 mm 6 mps 741 mmHg 78%
    14:00 +16°C° 0.5 mm 6 mps 741 mmHg 76%
    15:00 +16°C° 0.1 mm 6 mps 741 mmHg 77%
    16:00 +15°C° 0.1 mm 5 mps 741 mmHg 78%
    17:00 +15°C° 0.1 mm 5 mps 742 mmHg 79%
    18:00 +13°C° 0 mm 4 mps 742 mmHg 84%
    19:00 +12°C° 0 mm 3 mps 742 mmHg 88%
    20:00 +12°C° 0 mm 2 mps 742 mmHg 93%
    21:00 +10°C° 0 mm 2 mps 742 mmHg 94%
    22:00 +10°C° 0 mm 2 mps 742 mmHg 95%
    23:00 +10°C° 0 mm 1 mps 742 mmHg 95%

    19 July, Friday

    Time Temperature Precipitation Wind Pressure Humidity
    00:00 +10°C° 0 mm 1 mps 742 mmHg 95%
    01:00 +10°C° 0 mm 1 mps 742 mmHg 95%
    02:00 +10°C° 0 mm 1 mps 742 mmHg 95%
    03:00 +10°C° 0 mm 1 mps 742 mmHg 94%
    04:00 +11°C° 0 mm 1 mps 742 mmHg 93%
    05:00 +11°C° 0 mm 1 mps 742 mmHg 92%
    06:00 +13°C° 0 mm 1 mps 742 mmHg 89%
    07:00 +14°C° 0 mm 2 mps 742 mmHg 86%
    08:00 +15°C° 0 mm 2 mps 742 mmHg 83%
    09:00 +15°C° 0.1 mm 2 mps 742 mmHg 82%
    10:00 +14°C° 0.1 mm 3 mps 742 mmHg 82%
    11:00 +16°C° 0.1 mm 3 mps 742 mmHg 82%
    12:00 +16°C° 0.2 mm 3 mps 742 mmHg 83%
    13:00 +16°C° 0.2 mm 3 mps 741 mmHg 84%
    14:00 +16°C° 0.2 mm 2 mps 741 mmHg 85%
    15:00 +16°C° 0.1 mm 2 mps 741 mmHg 84%
    16:00 +16°C° 0.1 mm 1 mps 741 mmHg 84%
    17:00 +16°C° 0.1 mm 1 mps 741 mmHg 83%
    18:00 +15°C° 0.3 mm 1 mps 741 mmHg 86%
    19:00 +14°C° 0.3 mm 1 mps 741 mmHg 89%
    20:00 +14°C° 0.3 mm 1 mps 741 mmHg 91%
    21:00 +13°C° 0 mm 1 mps 741 mmHg 92%
    22:00 +13°C° 0 mm 1 mps 741 mmHg 92%
    23:00 +13°C° 0 mm 1 mps 741 mmHg 92%

    20 July, Saturday

    Time Temperature Precipitation Wind Pressure Humidity
    00:00 +13°C° 0 mm 1 mps 741 mmHg 93%
    01:00 +12°C° 0 mm 1 mps 741 mmHg 94%
    02:00 +12°C° 0 mm 1 mps 741 mmHg 95%
    03:00 +12°C° 0.1 mm 1 mps 740 mmHg 95%
    04:00 +12°C° 0.1 mm 1 mps 740 mmHg 96%
    05:00 +12°C° 0.1 mm 1 mps 740 mmHg 97%
    06:00 +14°C° 0 mm 2 mps 741 mmHg 93%
    07:00 +15°C° 0 mm 2 mps 741 mmHg 90%
    08:00 +16°C° 0 mm 3 mps 741 mmHg 87%
    09:00 +16°C° 0.1 mm 3 mps 741 mmHg 88%
    10:00 +14°C° 0.1 mm 3 mps 741 mmHg 88%
    11:00 +14°C° 0.1 mm 3 mps 741 mmHg 89%
    12:00 +16°C° 0.2 mm 3 mps 741 mmHg 86%
    13:00 +18°C° 0.2 mm 4 mps 741 mmHg 84%
    14:00 +19°C° 0.2 mm 4 mps 741 mmHg 81%
    15:00 +18°C° 1 mm 4 mps 741 mmHg 85%
    16:00 +17°C° 1 mm 3 mps 741 mmHg 89%
    17:00 +16°C° 1 mm 3 mps 741 mmHg 93%
    18:00 +16°C° 0.3 mm 3 mps 742 mmHg 94%
    19:00 +15°C° 0.3 mm 2 mps 742 mmHg 95%
    20:00 +15°C° 0.3 mm 2 mps 742 mmHg 97%
    21:00 +14°C° 0.1 mm 2 mps 742 mmHg 97%
    22:00 +14°C° 0.1 mm 2 mps 743 mmHg 97%
    23:00 +13°C° 0.1 mm 2 mps 743 mmHg 97%

    21 July, Sunday

    Time Temperature Precipitation Wind Pressure Humidity
    00:00 +13°C° 0 mm 2 mps 743 mmHg 97%
    01:00 +13°C° 0 mm 2 mps 743 mmHg 97%
    02:00 +12°C° 0 mm 2 mps 743 mmHg 97%
    03:00 +13°C° 0 mm 2 mps 744 mmHg 97%
    04:00 +12°C° 0 mm 3 mps 744 mmHg 98%
    05:00 +13°C° 0 mm 3 mps 744 mmHg 98%
    06:00 +14°C° 0 mm 4 mps 744 mmHg 95%
    07:00 +15°C° 0 mm 4 mps 744 mmHg 93%
    08:00 +16°C° 0 mm 5 mps 744 mmHg 90%
    09:00 +17°C° 0.1 mm 5 mps 744 mmHg 86%
    10:00 +19°C° 0.1 mm 5 mps 744 mmHg 83%
    11:00 +20°C° 0.1 mm 6 mps 744 mmHg 79%
    12:00 +20°C° 0.5 mm 5 mps 744 mmHg 80%
    13:00 +20°C° 0.5 mm 5 mps 744 mmHg 80%
    14:00 +21°C° 0.5 mm 5 mps 743 mmHg 80%
    15:00 +20°C° 0.9 mm 5 mps 743 mmHg 83%
    16:00 +20°C° 0.9 mm 5 mps 743 mmHg 86%
    17:00 +19°C° 0.9 mm 5 mps 742 mmHg 89%
    18:00 +17°C° 0.6 mm 5 mps 742 mmHg 91%
    19:00 +18°C° 0.6 mm 4 mps 742 mmHg 92%
    20:00 +17°C° 0.6 mm 4 mps 742 mmHg 94%
    21:00 +17°C° 0.2 mm 4 mps 741 mmHg 95%
    22:00 +15°C° 0.2 mm 4 mps 741 mmHg 95%
    23:00 +15°C° 0.2 mm 4 mps 741 mmHg 95%
    Show more